[[{"header":{"parameterUnit":"m.s-1","parameterCategory":1,"la1":30.2991,"la2":30.254,"lo1":-89.0895,"lo2":-89.0444,"dy":0.0017,"dx":0.0017,"nx":28,"ny":28,"refTime":"2024-05-30T03:00:00:Z","depth":0,"parameterNumber":2,"parameterNumberName":"U-component_of_WINDS"},"data":[0,0,0,0,0,0,0,0,0,0,0,0,0,0,0,0,0,0,0,0,0,0,0,0,0,0,0,0,0,0,0,0,0,0,0,0,0,0,0,0,0,0,0,0,0,0,0,0,0,0,0,0,0,0,0,0,0,0,-5.5898,-5.5898,0,-5.5944,-5.5944,-5.5945,-5.5883,-5.588,-5.5878,-5.5876,-5.592,-5.5923,-5.5926,0,0,0,0,0,0,0,0,0,0,0,0,0,-5.5756,-5.5759,-5.5898,-5.5898,-5.5899,-5.5944,-5.5944,-5.5945,-5.5883,-5.588,-5.5878,-5.5875,-5.5919,-5.5923,-5.5926,0,0,0,0,0,0,0,0,0,0,0,0,0,-5.5811,-5.576,-5.5898,-5.5874,-5.5872,-5.5943,-5.5944,-5.5945,-5.5884,-5.588,-5.5877,-5.5874,-5.5918,-5.5922,-5.5927,-5.6023,0,0,-5.5942,-5.5944,0,0,0,0,0,0,0,0,-5.5808,-5.5816,-5.5877,-5.5875,-5.5874,-5.5904,-5.591,-5.5971,-5.5884,-5.5879,-5.5876,-5.5872,-5.5917,-5.5922,-5.5937,-5.6025,-5.6027,-5.5942,-5.5945,-5.5947,-5.5949,0,0,0,0,0,0,0,-5.5804,-5.5814,-5.5916,-5.5878,-5.5876,-5.586,-5.5864,-5.5921,-5.5916,-5.5879,-5.5875,-5.5881,-5.5916,-5.5933,-5.5938,-5.6028,-5.5942,-5.5946,-5.5949,-5.5951,-5.6198,-5.6202,0,0,0,0,0,0,-5.5804,-5.5811,-5.5914,-5.5917,-5.5832,-5.5865,-5.587,-5.5898,-5.5915,-5.5915,-5.5884,-5.5878,-5.5926,-5.5932,-5.5939,-5.6053,-5.5947,-5.5952,-5.5954,-5.6195,-5.6199,-5.6203,0,0,0,0,0,0,-5.5801,-5.5813,-5.5913,-5.5863,-5.5875,-5.5871,-5.5903,-5.59,-5.5917,-5.5919,-5.5917,-5.5903,-5.5924,-5.5933,-5.6003,-5.6054,-5.5954,-5.5958,-5.619,-5.6196,-5.6201,-5.6281,0,0,0,0,0,0,-5.5797,-5.5813,-5.5849,-5.5865,-5.5878,-5.5976,-5.5906,-5.5904,-5.5926,-5.5919,-5.5936,-5.5936,-5.5922,-5.5997,-5.6008,-5.6058,-5.5962,-5.6186,-5.6193,-5.6199,-5.6274,-5.6289,-5.6302,0,0,0,0,0,-5.5792,-5.5869,-5.5851,-5.5864,-5.5923,-5.5979,-5.5986,-5.597,-5.5931,-5.5967,-5.5969,-5.5935,-5.6047,-5.6004,-5.6017,-5.6069,-5.6182,-5.6191,-5.6199,-5.6268,-5.6286,-5.6301,0,0,0,0,0,0,-5.5857,-5.587,-5.5851,-5.5935,-5.5957,-5.5969,-5.6014,-5.5989,-5.6021,-5.6013,-5.5991,-5.5995,-5.6071,-5.6078,-5.603,-5.6164,-5.6108,-5.6119,-5.6156,-5.6174,-5.6187,-5.6182,-5.5966,0,0,0,0,0,-5.5882,-5.5927,-5.5936,-5.6009,-5.6022,-5.6017,-5.604,-5.6026,-5.6047,-5.6055,-5.6062,-5.6083,-5.6123,-5.6149,-5.6186,-5.6276,-5.6279,-5.6319,-5.6333,-5.6344,-5.6353,-5.6402,-5.6419,-5.623,-5.623,-5.623,0,0,-5.5932,-5.5945,-5.5975,-5.6023,-5.6038,-5.6085,-5.6024,-5.6076,-5.611,-5.6063,-5.6129,-5.6136,-5.6158,-5.6239,-5.6275,-5.6247,-5.6407,-5.6355,-5.6364,-5.6366,-5.6412,-5.643,-5.6446,-5.6236,-5.6235,-5.6234,0,0,-5.6047,-5.6063,-5.6125,-5.6143,-5.6167,-5.6164,-5.618,-5.6196,-5.6199,-5.6267,-5.6232,-5.6273,-5.6343,-5.636,-5.6378,-5.6504,-5.6474,-5.6517,-5.6587,-5.6635,-5.665,-5.6663,-5.6707,-5.6723,-5.6527,-5.6527,-5.6527,0,-5.6106,-5.6176,-5.616,-5.6215,-5.6237,-5.62,-5.6264,-5.6281,-5.6316,-5.6332,-5.6301,-5.6388,-5.6401,-5.6485,-5.6517,-5.6533,-5.655,-5.6513,-5.6649,-5.6662,-5.6674,-5.6716,-5.6733,-5.6532,-5.6531,-5.6531,-5.653,0,-5.6246,-5.6296,-5.6344,-5.638,-5.6408,-5.6467,-5.6461,-5.6491,-5.6477,-5.6477,-5.6547,-5.6561,-5.6601,-5.6621,-5.6606,-5.6704,-5.6686,-5.6653,-5.6595,-5.6697,-5.6736,-5.6752,-5.6539,-5.6537,-5.6536,-5.6534,0,0,-5.6399,-5.643,-5.6447,-5.6464,-5.649,-5.6528,-5.6586,-5.6626,-5.6652,-5.668,-5.6727,-5.6789,-5.6759,-5.6779,-5.6767,-5.6809,-5.6908,-5.6771,-5.6771,-5.6794,-5.7017,-5.704,-5.7058,-5.689,-5.6893,-5.6896,-5.7014,0,-5.6513,-5.6613,-5.6603,-5.6699,-5.6744,-5.6712,-5.6762,-5.6784,-5.6787,-5.6826,-5.6829,-5.6872,-5.683,-5.6843,-5.6884,-5.6887,-5.6952,-5.6879,-5.6933,-5.6935,-5.6925,-5.7079,-5.7102,-5.7213,-5.703,-5.7032,-5.7034,0,-5.6657,-5.6691,-5.6792,-5.6813,-5.6832,-5.6878,-5.6915,-5.6953,-5.6978,-5.6977,-5.7002,-5.6983,-5.7042,-5.6987,-5.7067,-5.7017,-5.704,-5.7045,-5.7049,-5.7051,-5.6988,-5.7082,-5.7248,-5.7264,-5.7058,-5.7056,-5.7054,0,-5.6756,-5.6828,-5.6897,-5.6913,-5.694,-5.6973,-5.6986,-5.7007,-5.7033,-5.7066,-5.7082,-5.7122,-5.7142,-5.7173,-5.7166,-5.7126,-5.7248,-5.7192,-5.7247,-5.7248,-5.7271,-5.7269,-5.744,-5.729,-5.729,-5.729,-5.7289,0,-5.6882,-5.6945,-5.6942,-5.6984,-5.7054,-5.7043,-5.7112,-5.7121,-5.7141,-5.7184,-5.716,-5.7201,-5.719,-5.7231,-5.7226,-5.7292,-5.7302,-5.7303,-5.73,-5.7303,-5.7303,-5.7315,-5.7306,-5.7294,-5.7293,-5.7292,-5.7292,0,-5.7002,-5.7004,-5.7077,-5.7099,-5.7106,-5.7156,-5.7173,-5.7214,-5.7217,-5.7272,-5.7285,-5.7289,-5.7336,-5.7333,-5.7386,-5.7382,-5.7464,-5.7454,-5.7456,-5.7453,-5.7508,-5.7502,-5.769,-5.7714,-5.7551,-5.7553,-5.7554,0,-5.7081,-5.7129,-5.7156,-5.7185,-5.72,-5.7246,-5.7272,-5.7265,-5.7294,-5.7328,-5.7364,-5.7409,-5.7445,-5.7522,-5.7529,-5.757,-5.7559,-5.7623,-5.7564,-5.7567,-5.7558,-5.7554,-5.7558,-5.7632,-5.7634,-5.7636,-5.7637,0,-5.722,-5.7219,-5.7259,-5.7301,-5.7334,-5.7366,-5.7395,-5.742,-5.7415,-5.7449,-5.7498,-5.7526,-5.7582,-5.7627,-5.7667,-5.768,-5.7658,-5.7656,-5.7671,-5.7673,-5.7671,-5.7671,-5.7484,-5.7651,-5.7649,-5.7648,-5.7648,-5.7647,-5.732,-5.7362,-5.7388,-5.7434,-5.7456,-5.7485,-5.7524,-5.7533,-5.7575,-5.762,-5.7613,-5.7668,-5.7694,-5.7746,-5.7763,-5.7805,-5.7782,-5.7804,-5.7809,-5.7814,-5.7819,-5.7668,-5.7813,-5.7812,-5.7812,-5.7812,-5.7812,0,-5.7456,-5.7473,-5.7516,-5.7559,-5.7596,-5.7575,-5.7607,-5.7639,-5.7688,-5.7714,-5.7751,-5.7808,-5.7853,-5.7866,-5.7909,-5.7941,-5.7932,-5.7952,-5.7948,-5.7952,-5.7838,-5.782,-5.7959,-5.7959,-5.7959,-5.7959,-5.7959,-5.7959,-5.7531,-5.76,-5.7603,-5.7683,-5.7699,-5.7753,-5.7773,-5.78,-5.7821,-5.7887,-5.7924,-5.7933,-5.7955,-5.8,-5.8041,-5.8043,-5.8059,-5.8083,-5.8082,-5.7974,-5.7959,-5.7945,-5.7928,-5.8088,-5.8088,-5.8191,-5.8192,-5.8193]},{"header":{"parameterUnit":"m.s-1","parameterCategory":1,"la1":30.2991,"la2":30.254,"lo1":-89.0895,"lo2":-89.0444,"dy":0.0017,"dx":0.0017,"nx":28,"ny":28,"refTime":"2024-05-30T03:00:00:Z","depth":0,"parameterNumber":3,"parameterNumberName":"V-component_of_WINDS"},"data":[0,0,0,0,0,0,0,0,0,0,0,0,0,0,0,0,0,0,0,0,0,0,0,0,0,0,0,0,0,0,0,0,0,0,0,0,0,0,0,0,0,0,0,0,0,0,0,0,0,0,0,0,0,0,0,0,0,0,3.3359,3.3359,0,3.3357,3.3357,3.3357,3.3402,3.3403,3.3404,3.3406,3.3397,3.3395,3.3394,0,0,0,0,0,0,0,0,0,0,0,0,0,3.3397,3.3396,3.3359,3.3359,3.3359,3.3357,3.3357,3.3357,3.3402,3.3403,3.3405,3.3406,3.3397,3.3395,3.3394,0,0,0,0,0,0,0,0,0,0,0,0,0,3.3386,3.3395,3.3359,3.3381,3.3383,3.3357,3.3357,3.3357,3.3401,3.3403,3.3405,3.3407,3.3398,3.3396,3.3393,3.3343,0,0,3.3387,3.3386,0,0,0,0,0,0,0,0,3.3386,3.3384,3.3378,3.338,3.3382,3.3382,3.3367,3.3352,3.3401,3.3394,3.3406,3.3408,3.339,3.3388,3.3384,3.3343,3.3342,3.3387,3.3386,3.3385,3.3384,0,0,0,0,0,0,0,3.3387,3.3385,3.3358,3.3378,3.338,3.339,3.339,3.3364,3.3381,3.3395,3.3398,3.3398,3.3391,3.3386,3.3384,3.3342,3.3387,3.3385,3.3384,3.3383,3.3261,3.326,0,0,0,0,0,0,3.3385,3.3385,3.3358,3.3358,3.3389,3.3387,3.3388,3.338,3.3382,3.3384,3.3396,3.34,3.3388,3.3386,3.3384,3.3326,3.3385,3.3383,3.3382,3.3263,3.3261,3.3259,0,0,0,0,0,0,3.3386,3.3383,3.3358,3.3372,3.337,3.3385,3.3375,3.3379,3.3373,3.3383,3.3385,3.3388,3.339,3.3386,3.3354,3.3326,3.3382,3.338,3.3266,3.3263,3.326,3.3209,0,0,0,0,0,0,3.3387,3.3383,3.3365,3.3372,3.3369,3.3329,3.3373,3.3377,3.337,3.3375,3.3376,3.3377,3.3391,3.3357,3.3352,3.3324,3.3378,3.3268,3.3264,3.3261,3.3213,3.3205,3.3197,0,0,0,0,0,3.3388,3.3349,3.3364,3.336,3.3347,3.3328,3.3326,3.3344,3.3368,3.335,3.3356,3.3377,3.333,3.3353,3.3348,3.3319,3.327,3.3266,3.3261,3.3217,3.3206,3.3198,0,0,0,0,0,0,3.3335,3.335,3.3367,3.3329,3.3327,3.3336,3.3313,3.3332,3.3322,3.3327,3.3348,3.3347,3.3311,3.3312,3.3337,3.3271,3.3304,3.3298,3.3272,3.3262,3.3255,3.3255,3.3377,0,0,0,0,0,3.332,3.3305,3.3318,3.3283,3.3281,3.3297,3.3289,3.3304,3.3302,3.3301,3.3305,3.33,3.3285,3.3274,3.326,3.3214,3.3215,3.3192,3.3184,3.3177,3.3172,3.3148,3.3139,3.3244,3.3244,3.3245,0,0,3.3286,3.3293,3.3281,3.3272,3.3273,3.3255,3.3296,3.3275,3.3262,3.3297,3.3267,3.327,3.3266,3.3227,3.321,3.3226,3.3143,3.3172,3.3166,3.3164,3.3143,3.3133,3.3124,3.3241,3.3242,3.3242,0,0,3.3217,3.322,3.3192,3.3193,3.3194,3.3205,3.3198,3.3204,3.3208,3.3179,3.3206,3.3189,3.3162,3.3159,3.3153,3.3085,3.3104,3.3079,3.3037,3.3014,3.3006,3.2999,3.2974,3.2965,3.3074,3.3074,3.3074,0,3.3174,3.3151,3.3174,3.3153,3.3148,3.3182,3.3153,3.3151,3.3147,3.3142,3.3161,3.3129,3.3128,3.309,3.3073,3.3068,3.306,3.3079,3.3006,3.2999,3.2992,3.2969,3.296,3.3071,3.3071,3.3072,3.3072,0,3.3099,3.3082,3.3059,3.3057,3.305,3.3024,3.3043,3.3032,3.3047,3.3056,3.3026,3.3028,3.3015,3.3007,3.3021,3.2971,3.2981,3.3003,3.3036,3.2979,3.2957,3.2949,3.3067,3.3068,3.3069,3.3069,0,0,3.2994,3.3008,3.2999,3.2999,3.3004,3.299,3.2966,3.2957,3.2947,3.2943,3.2923,3.29,3.2921,3.2915,3.2929,3.2909,3.2855,3.2933,3.2933,3.2918,3.2799,3.2783,3.2772,3.2868,3.2867,3.2865,3.28,0,3.2927,3.2889,3.291,3.2869,3.2853,3.2886,3.2865,3.2865,3.2873,3.286,3.2868,3.2851,3.288,3.2877,3.2859,3.2865,3.2831,3.287,3.2848,3.2847,3.2848,3.2761,3.2743,3.2681,3.2791,3.279,3.2789,0,3.2843,3.2839,3.2796,3.2806,3.28,3.2781,3.2774,3.2762,3.2762,3.2769,3.2764,3.2783,3.2759,3.2793,3.276,3.2786,3.2779,3.2781,3.2779,3.2777,3.2814,3.2756,3.2661,3.2652,3.2776,3.2777,3.2778,0,3.2772,3.2755,3.2728,3.2726,3.2736,3.2722,3.2725,3.2728,3.2721,3.2715,3.2711,3.2701,3.2695,3.2686,3.2702,3.2725,3.2666,3.2701,3.267,3.267,3.2656,3.2656,3.2558,3.2651,3.2651,3.2652,3.2652,0,3.2694,3.2667,3.2696,3.2679,3.2649,3.2673,3.2642,3.2649,3.2651,3.2635,3.2662,3.2646,3.2668,3.2654,3.2665,3.2636,3.2633,3.2637,3.2641,3.2635,3.2634,3.2629,3.2634,3.2649,3.265,3.265,3.2651,0,3.2608,3.2627,3.26,3.2612,3.2615,3.2592,3.2602,3.2586,3.2597,3.2576,3.2573,3.2588,3.2573,3.2589,3.2573,3.2582,3.2542,3.2552,3.2543,3.2545,3.2514,3.2516,3.2408,3.2395,3.2497,3.2496,3.2496,0,3.2558,3.2538,3.2549,3.2542,3.2544,3.2531,3.2525,3.2548,3.254,3.254,3.2524,3.2512,3.2504,3.2478,3.2487,3.2475,3.2485,3.2448,3.2483,3.2478,3.2484,3.2485,3.2483,3.244,3.2439,3.2438,3.2437,0,3.2465,3.2476,3.2468,3.2463,3.2456,3.2452,3.2451,3.2442,3.2466,3.2456,3.2443,3.2436,3.2423,3.241,3.2402,3.2403,3.2423,3.2426,3.2419,3.2412,3.2407,3.241,3.2523,3.2428,3.2429,3.243,3.243,3.2431,3.2396,3.238,3.2386,3.2376,3.2378,3.2376,3.2363,3.2373,3.2362,3.2355,3.2368,3.2351,3.2352,3.2344,3.2344,3.233,3.2345,3.2334,3.2331,3.2327,3.2323,3.2411,3.2328,3.2328,3.2329,3.2329,3.2329,0,3.2305,3.2311,3.2302,3.23,3.2292,3.2315,3.2315,3.2306,3.2291,3.2292,3.2284,3.2268,3.2256,3.2266,3.2255,3.2242,3.2251,3.2239,3.224,3.224,3.2309,3.2317,3.2232,3.2232,3.2232,3.2232,3.2232,3.2232,3.2257,3.2232,3.2244,3.222,3.2225,3.2211,3.2209,3.2207,3.2208,3.219,3.2181,3.2188,3.2192,3.2183,3.2173,3.2176,3.217,3.2154,3.216,3.2225,3.2235,3.2244,3.2251,3.2153,3.2153,3.2092,3.2091,3.2091]}]]